Flag for Canada Weather past 2 weeks in St. John's, Newfoundland and Labrador, Canada

Now
30 °F

Mostly cloudy.


Feels Like: 18 °F
Forecast: 31 / 37 °F
Wind: 20 mph from Northeast

Location: St. John's


UV Index: 3 (Moderate)

Visibility: 15 mi


Pressure: 29.69 "Hg

Humidity: 93%

Dew point: 28 °F

Location of St. John'sLocation

Historic Weather in St. John's

°F

St. John's temperature yesterday

Maximum temperature yesterday: 32 °F (at 12:30 AM)
Minimum temperature yesterday: 30 °F (at 1:21 AM)
Average temperature yesterday: 31 °F

Past Weeks' High & Low Weather Summary

 TemperatureHumidityPressure
High64 °F (Apr 16, 1:30 PM)100% (Apr 9, 6:30 AM)30.77 "Hg (Apr 9, 6:30 AM)
Low21 °F (Apr 18, 6:30 AM)37% (Apr 11, 12:30 PM)29.35 "Hg (Apr 10, 4:30 AM)
Average36 °F83%30.06 "Hg
* Reported Apr 9 6:30 AM — Apr 24 6:30 AM, St. John's, Weather by CustomWeather, © 2014

Note: Actual official high and low records may vary slightly from our data, if they occured in-between our weather recording intervals... More about our weather records

Advertising

Historic Weather Conditions — Data for Previous 24 hours

 ConditionsComfort  
Time TempWeatherWind HumidityBarometerVisibility
6:30 AM
Apr 24
30 °FMostly cloudy.20 mph93%29.69 "Hg15 mi
5:30 AM30 °FSnow flurries. Mostly cloudy.22 mph93%29.69 "Hg12 mi
4:30 AM30 °FSnow flurries. Low clouds.18 mph93%29.70 "Hg12 mi
3:30 AM30 °FOvercast.16 mph93%29.71 "Hg15 mi
2:30 AM30 °FMostly cloudy.17 mph93%29.72 "Hg15 mi
1:30 AM30 °FSnow flurries. Low clouds.21 mph93%29.72 "Hg15 mi
12:30 AM30 °FMostly cloudy.24 mph93%29.74 "Hg15 mi
11:30 PM
Apr 23
30 °FOvercast.28 mph86%29.73 "Hg15 mi
10:30 PM30 °FMostly cloudy.21 mph80%29.75 "Hg15 mi
9:30 PM30 °FMostly cloudy.21 mph80%29.76 "Hg15 mi
8:30 PM30 °FIce fog.18 mph100%29.76 "Hg3 mi
7:30 PM30 °FIce fog.18 mph100%29.78 "Hg0 mi
6:30 PM30 °FIce fog.17 mph100%29.79 "Hg0 mi
5:30 PM30 °FIce fog.21 mph100%29.79 "Hg0 mi
4:30 PM30 °FIce fog.15 mph100%29.80 "Hg0 mi
3:30 PM32 °FIce fog.15 mph100%29.82 "Hg0 mi
2:30 PM32 °FFog.15 mph100%29.84 "Hg0 mi
1:30 PM32 °FIce fog.16 mph100%29.86 "Hg0 mi
12:30 PM32 °FIce fog.16 mph100%29.88 "Hg0 mi
11:30 AM32 °FIce fog.13 mph100%29.89 "Hg0 mi
10:30 AM30 °FIce fog.17 mph100%29.90 "Hg0 mi
9:30 AM30 °FIce fog.14 mph100%29.92 "Hg0 mi
8:30 AM30 °FChilly.12 mph100%29.91 "Hg0 mi
7:30 AM30 °FLight freezing rain. Ice fog.8 mph100%29.91 "Hg0 mi
Weather by CustomWeather, © 2014

See weather overview